This is the latest recevied weather packets stored in our database for station/object NR0A-4. If no packets are shown the sender has not sent any weather packets the latest 10 day(s).
| Time | Temp. | Humidity | Pressure | Rain* | Wind** | Luminosity | Snow |
|---|---|---|---|---|---|---|---|
| 1777650005 | 10° C | 55% | 1019.4 hPa | 0 mm | - | 680 W/m² | - |
| 1777649704 | 9.44° C | 54% | 1019.4 hPa | 0 mm | - | 668 W/m² | - |
| 1777649405 | 9.44° C | 55% | 1019.4 hPa | 0 mm | - | 670 W/m² | - |
| 1777649105 | 9.44° C | 53% | 1019.3 hPa | 0 mm | - | 645 W/m² | - |
| 1777648804 | 9.44° C | 52% | 1019.4 hPa | 0 mm | - | 636 W/m² | - |
| 1777648504 | 9.44° C | 55% | 1019.4 hPa | 0 mm | - | 545 W/m² | - |
| 1777648205 | 9.44° C | 56% | 1019.3 hPa | 0 mm | - | 608 W/m² | - |
| 1777647904 | 9.44° C | 58% | 1019.4 hPa | 0 mm | - | 603 W/m² | - |
| 1777647604 | 8.89° C | 62% | 1019.4 hPa | 0 mm | - | 582 W/m² | - |
| 1777647305 | 8.89° C | 61% | 1019.4 hPa | 0 mm | - | 571 W/m² | - |
| 1777647004 | 8.89° C | 60% | 1019.4 hPa | 0 mm | - | 557 W/m² | - |
| 1777646705 | 8.89° C | 63% | 1019.4 hPa | 0 mm | - | 548 W/m² | - |
| 1777646404 | 8.33° C | 67% | 1019.3 hPa | 0 mm | - | 522 W/m² | - |
| 1777646105 | 8.33° C | 69% | 1019.4 hPa | 0 mm | - | 513 W/m² | - |
| 1777645804 | 7.78° C | 71% | 1019.4 hPa | 0 mm | - | 496 W/m² | - |
| 1777645504 | 7.22° C | 70% | 1019.5 hPa | 0 mm | - | 482 W/m² | - |
| 1777645205 | 7.22° C | 71% | 1019.4 hPa | 0 mm | - | 464 W/m² | - |
| 1777644904 | 7.22° C | 72% | 1019.3 hPa | 0 mm | - | 446 W/m² | - |
| 1777644605 | 6.67° C | 73% | 1019.3 hPa | 0 mm | - | 438 W/m² | - |
| 1777644304 | 6.67° C | 74% | 1019.3 hPa | 0 mm | - | 424 W/m² | - |
| 1777644004 | 6.11° C | 74% | 1019.3 hPa | 0 mm | - | 406 W/m² | - |
| 1777643704 | 6.11° C | 75% | 1019.2 hPa | 0 mm | - | 392 W/m² | - |
| 1777643404 | 5.56° C | 75% | 1019.2 hPa | 0 mm | - | 373 W/m² | - |
| 1777643105 | 5.56° C | 76% | 1019.1 hPa | 0 mm | - | 362 W/m² | - |
| 1777642805 | 5° C | 77% | 1019.1 hPa | 0 mm | - | 334 W/m² | - |
* Rain latest hour (hover to see other rain measurements)
** Current wind speed in m/s (hover to see current wind gust speed)